Time,TemperatureF,DewpointF,PressureIn,WindDirection,WindDirectionDegrees,WindSpeedMPH,WindSpeedGustMPH,Humidity,HourlyPrecipIn,Conditions,Clouds,dailyrainin,SolarRadiationWatts/m^2,SoftwareType,DateUTC
2013-04-28 00:01:00,49.6,49.6,29.63,WNW,292,2.3,2.3,100,0.00,,OVC,0.00,0.0,WeatherDisplay:10.37,2013-04-28 05:01:00,
2013-04-28 00:06:00,49.5,49.5,29.63,WNW,292,1.6,1.6,100,0.00,,OVC,0.00,0.0,WeatherDisplay:10.37,2013-04-28 05:06:00,
2013-04-28 00:11:00,49.5,49.5,29.63,WNW,292,2.3,2.3,100,0.00,,OVC,0.00,0.0,WeatherDisplay:10.37,2013-04-28 05:11:00,
2013-04-28 00:16:00,49.5,49.5,29.63,WNW,292,1.1,0.0,100,0.00,,OVC,0.00,0.0,WeatherDisplay:10.37,2013-04-28 05:16:00,
2013-04-28 00:21:00,49.5,49.5,29.63,WNW,292,2.3,2.3,100,0.00,,OVC,0.00,0.0,WeatherDisplay:10.37,2013-04-28 05:21:00,
2013-04-28 00:26:00,49.5,49.5,29.63,WNW,292,2.3,2.3,100,0.00,,OVC,0.00,0.0,WeatherDisplay:10.37,2013-04-28 05:26:00,
2013-04-28 00:31:00,49.5,49.5,29.63,WNW,292,2.3,2.3,100,0.00,,OVC,0.00,0.0,WeatherDisplay:10.37,2013-04-28 05:31:00,
2013-04-28 00:36:00,49.5,49.5,29.63,WNW,292,2.3,2.3,100,0.00,,OVC,0.00,0.0,WeatherDisplay:10.37,2013-04-28 05:36:00,
2013-04-28 00:41:00,49.5,49.5,29.63,WNW,292,1.1,1.1,100,0.00,,OVC,0.00,0.0,WeatherDisplay:10.37,2013-04-28 05:41:00,
2013-04-28 00:46:00,49.5,49.5,29.63,WNW,292,0.0,0.0,100,0.00,,OVC,0.00,0.0,WeatherDisplay:10.37,2013-04-28 05:46:00,
2013-04-28 00:51:00,49.5,49.5,29.63,WNW,292,0.0,0.0,100,0.00,,OVC,0.00,0.0,WeatherDisplay:10.37,2013-04-28 05:51:00,
2013-04-28 00:56:00,49.5,49.5,29.63,WNW,292,0.0,0.0,100,0.00,,OVC,0.00,0.0,WeatherDisplay:10.37,2013-04-28 05:56:00,
2013-04-28 01:01:00,49.5,49.5,29.63,WNW,292,1.4,0.0,100,0.00,,OVC,0.00,0.0,WeatherDisplay:10.37,2013-04-28 06:01:00,
2013-04-28 01:06:00,49.5,49.5,29.63,WNW,292,2.3,2.3,100,0.00,,OVC,0.00,0.0,WeatherDisplay:10.37,2013-04-28 06:06:00,
2013-04-28 01:11:00,49.5,49.5,29.63,WNW,292,2.3,2.3,100,0.00,,OVC,0.00,0.0,WeatherDisplay:10.37,2013-04-28 06:11:00,
2013-04-28 01:16:00,49.5,49.5,29.63,WNW,292,2.3,2.3,100,0.00,,OVC,0.00,0.0,WeatherDisplay:10.37,2013-04-28 06:16:00,
2013-04-28 01:21:00,49.5,49.5,29.63,WNW,292,2.3,2.3,100,0.00,,OVC,0.00,0.0,WeatherDisplay:10.37,2013-04-28 06:21:00,
2013-04-28 01:26:00,49.5,49.5,29.63,WNW,292,1.4,0.0,100,0.00,,OVC,0.00,0.0,WeatherDisplay:10.37,2013-04-28 06:26:00,
2013-04-28 01:31:00,49.5,49.5,29.63,WNW,292,1.1,0.0,100,0.00,,OVC,0.00,0.0,WeatherDisplay:10.37,2013-04-28 06:31:00,
2013-04-28 01:36:00,49.5,49.5,29.63,WNW,292,0.0,0.0,100,0.00,,OVC,0.00,0.0,WeatherDisplay:10.37,2013-04-28 06:36:00,
2013-04-28 01:41:00,49.5,49.5,29.63,WNW,292,2.3,2.3,100,0.00,,OVC,0.00,0.0,WeatherDisplay:10.37,2013-04-28 06:41:00,
2013-04-28 01:46:00,49.5,49.5,29.63,WNW,292,2.0,2.0,100,0.00,,OVC,0.00,0.0,WeatherDisplay:10.37,2013-04-28 06:46:00,
2013-04-28 01:51:00,49.5,49.5,29.63,WNW,292,2.0,2.0,100,0.00,,OVC,0.00,0.0,WeatherDisplay:10.37,2013-04-28 06:51:00,
2013-04-28 01:56:00,49.5,49.5,29.63,WNW,292,2.3,2.3,100,0.00,,OVC,0.00,0.0,WeatherDisplay:10.37,2013-04-28 06:56:00,
2013-04-28 02:02:00,49.5,49.5,29.63,WNW,292,2.3,2.3,100,0.00,,OVC,0.00,0.0,WeatherDisplay:10.37,2013-04-28 07:02:00,
2013-04-28 02:07:00,49.5,49.5,29.63,WNW,292,2.3,2.3,100,0.00,,OVC,0.00,0.0,WeatherDisplay:10.37,2013-04-28 07:07:00,
2013-04-28 02:12:00,49.5,49.5,29.63,WNW,292,1.1,0.0,100,0.00,,OVC,0.00,0.0,WeatherDisplay:10.37,2013-04-28 07:12:00,
2013-04-28 02:17:00,49.5,49.5,29.63,WNW,292,1.1,1.1,100,0.00,,OVC,0.00,0.0,WeatherDisplay:10.37,2013-04-28 07:17:00,
2013-04-28 02:22:00,49.5,49.5,29.60,WNW,292,0.0,0.0,100,0.00,,OVC,0.00,0.0,WeatherDisplay:10.37,2013-04-28 07:22:00,
2013-04-28 02:27:00,49.5,49.5,29.60,WNW,292,0.0,0.0,100,0.00,,OVC,0.00,0.0,WeatherDisplay:10.37,2013-04-28 07:27:00,
2013-04-28 02:32:00,49.5,49.5,29.60,WNW,292,0.0,0.0,100,0.00,,OVC,0.00,0.0,WeatherDisplay:10.37,2013-04-28 07:32:00,
2013-04-28 02:37:00,49.5,49.5,29.60,WNW,292,1.1,0.0,100,0.00,,OVC,0.00,0.0,WeatherDisplay:10.37,2013-04-28 07:37:00,
2013-04-28 02:42:00,49.5,49.5,29.60,WNW,292,0.0,0.0,100,0.00,,OVC,0.00,0.0,WeatherDisplay:10.37,2013-04-28 07:42:00,
2013-04-28 02:47:00,49.5,49.5,29.60,WNW,292,0.0,0.0,100,0.00,,OVC,0.00,0.0,WeatherDisplay:10.37,2013-04-28 07:47:00,
2013-04-28 02:52:00,49.5,49.5,29.60,WNW,292,0.0,0.0,100,0.00,,OVC,0.00,0.0,WeatherDisplay:10.37,2013-04-28 07:52:00,
2013-04-28 02:57:00,49.5,49.5,29.60,WNW,292,2.3,2.3,100,0.00,,OVC,0.00,0.0,WeatherDisplay:10.37,2013-04-28 07:57:00,
2013-04-28 03:02:00,49.5,49.5,29.60,WNW,292,1.1,0.0,100,0.00,,OVC,0.00,0.0,WeatherDisplay:10.37,2013-04-28 08:02:00,
2013-04-28 03:07:00,49.5,49.5,29.57,WNW,292,0.0,0.0,100,0.00,,OVC,0.00,0.0,WeatherDisplay:10.37,2013-04-28 08:07:00,
2013-04-28 03:12:00,49.5,49.5,29.57,WNW,292,2.3,2.3,100,0.00,,OVC,0.00,0.0,WeatherDisplay:10.37,2013-04-28 08:12:00,
2013-04-28 03:17:00,49.5,49.5,29.57,WNW,292,1.1,1.1,100,0.00,,OVC,0.00,0.0,WeatherDisplay:10.37,2013-04-28 08:17:00,
2013-04-28 03:22:00,49.5,49.5,29.60,WNW,292,1.1,1.4,100,0.00,,OVC,0.00,0.0,WeatherDisplay:10.37,2013-04-28 08:22:00,
2013-04-28 03:27:00,49.6,49.6,29.60,WNW,292,0.0,0.0,100,0.00,,OVC,0.00,0.0,WeatherDisplay:10.37,2013-04-28 08:27:00,
2013-04-28 03:32:00,49.6,49.6,29.60,WNW,292,0.0,0.0,100,0.00,,OVC,0.00,0.0,WeatherDisplay:10.37,2013-04-28 08:32:00,
2013-04-28 03:37:00,49.6,49.6,29.57,WNW,292,0.0,0.0,100,0.00,,OVC,0.00,0.0,WeatherDisplay:10.37,2013-04-28 08:37:00,
2013-04-28 03:42:00,49.6,49.6,29.57,WNW,292,0.0,0.0,100,0.00,,OVC,0.00,0.0,WeatherDisplay:10.37,2013-04-28 08:42:00,
2013-04-28 03:47:00,49.6,49.6,29.57,WNW,292,0.0,0.0,100,0.00,,OVC,0.00,0.0,WeatherDisplay:10.37,2013-04-28 08:47:00,
2013-04-28 03:52:00,49.6,49.6,29.60,WNW,292,0.0,0.0,100,0.00,,OVC,0.00,0.0,WeatherDisplay:10.37,2013-04-28 08:52:00,
2013-04-28 03:57:00,49.6,49.6,29.60,West,270,2.0,2.0,100,0.00,,OVC,0.00,0.0,WeatherDisplay:10.37,2013-04-28 08:57:00,
2013-04-28 04:02:00,49.6,49.6,29.60,West,270,0.0,0.0,100,0.00,,OVC,0.00,0.0,WeatherDisplay:10.37,2013-04-28 09:02:00,
2013-04-28 04:07:00,49.6,49.6,29.57,West,270,1.6,0.0,100,0.00,,OVC,0.00,0.0,WeatherDisplay:10.37,2013-04-28 09:07:00,
2013-04-28 04:12:00,49.6,49.6,29.57,West,270,2.3,2.3,100,0.00,,OVC,0.00,0.0,WeatherDisplay:10.37,2013-04-28 09:12:00,
2013-04-28 04:17:00,49.6,49.6,29.57,West,270,2.3,2.3,100,0.00,,OVC,0.00,0.0,WeatherDisplay:10.37,2013-04-28 09:17:00,
2013-04-28 04:22:00,49.6,49.6,29.57,West,270,0.0,0.0,100,0.00,,OVC,0.00,0.0,WeatherDisplay:10.37,2013-04-28 09:22:00,
2013-04-28 04:27:00,49.6,49.6,29.57,West,270,0.0,0.0,100,0.00,,OVC,0.00,0.0,WeatherDisplay:10.37,2013-04-28 09:27:00,
2013-04-28 04:32:00,49.6,49.6,29.57,SSW,202,2.3,2.3,100,0.00,,OVC,0.00,0.0,WeatherDisplay:10.37,2013-04-28 09:32:00,
2013-04-28 04:37:00,49.6,49.6,29.57,SSW,202,0.0,0.0,100,0.00,,OVC,0.00,0.0,WeatherDisplay:10.37,2013-04-28 09:37:00,
2013-04-28 04:42:00,49.5,49.5,29.57,SSW,202,0.0,0.0,100,0.00,,OVC,0.00,0.0,WeatherDisplay:10.37,2013-04-28 09:42:00,
2013-04-28 04:47:00,49.6,49.6,29.57,SSW,202,2.2,0.0,100,0.00,,OVC,0.00,0.0,WeatherDisplay:10.37,2013-04-28 09:47:00,
2013-04-28 04:52:00,49.6,49.6,29.57,SSW,202,2.3,2.3,100,0.00,,OVC,0.00,0.0,WeatherDisplay:10.37,2013-04-28 09:52:00,
2013-04-28 04:57:00,49.6,49.6,29.57,SSW,202,3.5,3.5,100,0.00,,OVC,0.00,0.0,WeatherDisplay:10.37,2013-04-28 09:57:00,
2013-04-28 05:02:00,49.6,49.6,29.57,SSW,202,0.0,0.0,100,0.00,,OVC,0.00,0.0,WeatherDisplay:10.37,2013-04-28 10:02:00,
2013-04-28 05:07:00,49.6,49.6,29.60,SSW,202,0.0,0.0,100,0.00,,OVC,0.00,0.0,WeatherDisplay:10.37,2013-04-28 10:07:00,
2013-04-28 05:12:00,49.6,49.6,29.60,ENE,68,2.3,2.3,100,0.00,,OVC,0.00,0.0,WeatherDisplay:10.37,2013-04-28 10:12:00,
2013-04-28 05:17:00,49.6,49.6,29.60,ENE,68,0.0,0.0,100,0.00,,OVC,0.00,0.0,WeatherDisplay:10.37,2013-04-28 10:17:00,
2013-04-28 05:20:00,64.0,49.4,29.63,WNW,292,6.0,7.0,59,0.00,CLR,OVC,0.00,500.0,WeatherDisplay:10.37,2013-04-28 10:20:00,
2013-04-28 05:22:00,49.6,49.6,29.60,ENE,68,0.0,0.0,100,0.00,,OVC,0.00,0.0,WeatherDisplay:10.37,2013-04-28 10:22:00,
2013-04-28 05:27:00,49.6,49.6,29.60,East,90,0.0,0.0,100,0.00,,OVC,0.00,0.0,WeatherDisplay:10.37,2013-04-28 10:27:00,
2013-04-28 05:32:00,49.6,49.6,29.60,East,90,0.0,0.0,100,0.00,,OVC,0.00,0.0,WeatherDisplay:10.37,2013-04-28 10:32:00,
2013-04-28 05:37:00,49.6,49.6,29.60,North,0,2.3,2.3,100,0.00,,OVC,0.00,0.0,WeatherDisplay:10.37,2013-04-28 10:37:00,
2013-04-28 05:42:00,49.6,49.6,29.60,WNW,292,2.3,2.3,100,0.00,,OVC,0.00,0.0,WeatherDisplay:10.37,2013-04-28 10:42:00,
2013-04-28 05:47:00,49.6,49.6,29.60,WNW,292,2.3,2.3,100,0.00,,OVC,0.00,0.0,WeatherDisplay:10.37,2013-04-28 10:47:00,
2013-04-28 05:52:00,49.6,49.6,29.60,WNW,292,2.4,2.4,100,0.00,,OVC,0.00,0.0,WeatherDisplay:10.37,2013-04-28 10:52:00,
2013-04-28 05:57:00,49.8,49.8,29.60,West,270,2.3,2.3,100,0.00,,OVC,0.00,0.0,WeatherDisplay:10.37,2013-04-28 10:57:00,
2013-04-28 06:02:00,49.8,49.8,29.60,West,270,2.3,2.4,100,0.00,,OVC,0.00,0.0,WeatherDisplay:10.37,2013-04-28 11:02:00,
2013-04-28 06:07:00,49.8,49.8,29.60,West,270,3.5,3.5,100,0.00,,OVC,0.00,0.0,WeatherDisplay:10.37,2013-04-28 11:07:00,
2013-04-28 06:12:00,49.8,49.8,29.60,WSW,248,0.0,0.0,100,0.00,,OVC,0.00,0.0,WeatherDisplay:10.37,2013-04-28 11:12:00,
2013-04-28 06:17:00,49.8,49.8,29.60,WSW,248,2.3,2.3,100,0.00,,OVC,0.00,0.0,WeatherDisplay:10.37,2013-04-28 11:17:00,
2013-04-28 06:22:00,49.8,49.8,29.60,WSW,248,2.3,2.3,100,0.00,,OVC,0.00,0.0,WeatherDisplay:10.37,2013-04-28 11:22:00,
2013-04-28 06:27:00,49.8,49.8,29.60,WSW,248,2.3,2.4,100,0.00,,OVC,0.00,0.0,WeatherDisplay:10.37,2013-04-28 11:27:00,
2013-04-28 06:32:00,49.8,49.8,29.60,WSW,248,2.9,2.9,100,0.00,,OVC,0.00,0.0,WeatherDisplay:10.37,2013-04-28 11:32:00,
2013-04-28 06:37:00,49.8,49.8,29.60,WNW,292,3.6,3.6,100,0.00,,OVC,0.00,0.0,WeatherDisplay:10.37,2013-04-28 11:37:00,
2013-04-28 06:42:00,49.8,49.8,29.60,WSW,248,3.5,3.5,100,0.00,,OVC,0.00,0.0,WeatherDisplay:10.37,2013-04-28 11:42:00,
2013-04-28 06:47:00,49.8,49.8,29.60,WSW,248,2.3,2.3,100,0.00,,OVC,0.00,0.0,WeatherDisplay:10.37,2013-04-28 11:47:00,
2013-04-28 06:52:00,49.8,49.8,29.60,WSW,248,3.5,3.5,100,0.00,,OVC,0.00,0.0,WeatherDisplay:10.37,2013-04-28 11:52:00,
2013-04-28 06:57:00,50.0,50.0,29.60,SW,225,3.5,3.5,100,0.00,,OVC,0.00,0.0,WeatherDisplay:10.37,2013-04-28 11:57:00,
2013-04-28 07:02:00,50.0,50.0,29.63,WSW,248,3.5,3.5,100,0.00,,OVC,0.00,0.0,WeatherDisplay:10.37,2013-04-28 12:02:00,
2013-04-28 07:07:00,50.2,50.2,29.63,WSW,248,4.6,4.6,100,0.00,,OVC,0.00,0.0,WeatherDisplay:10.37,2013-04-28 12:07:00,
2013-04-28 07:12:00,50.2,50.2,29.63,WSW,248,2.6,2.6,100,0.00,,OVC,0.00,0.0,WeatherDisplay:10.37,2013-04-28 12:12:00,
2013-04-28 07:17:00,50.4,50.4,29.63,WSW,248,4.6,4.6,100,0.00,,OVC,0.00,0.0,WeatherDisplay:10.37,2013-04-28 12:17:00,
2013-04-28 07:22:00,50.5,50.5,29.63,WSW,248,5.8,5.8,100,0.00,,OVC,0.00,0.0,WeatherDisplay:10.37,2013-04-28 12:22:00,
2013-04-28 07:27:00,50.7,50.7,29.63,WSW,248,4.6,4.6,100,0.00,,OVC,0.00,0.0,WeatherDisplay:10.37,2013-04-28 12:27:00,
2013-04-28 07:32:00,50.7,50.7,29.63,WSW,248,4.7,4.7,100,0.00,,OVC,0.00,0.0,WeatherDisplay:10.37,2013-04-28 12:32:00,
2013-04-28 07:38:00,50.9,50.9,29.63,SSW,202,4.9,4.9,100,0.00,,OVC,0.00,0.0,WeatherDisplay:10.37,2013-04-28 12:38:00,
2013-04-28 07:43:00,51.1,50.5,29.63,WSW,248,3.5,3.5,98,0.00,,OVC,0.00,0.0,WeatherDisplay:10.37,2013-04-28 12:43:00,
2013-04-28 07:48:00,51.3,50.7,29.63,SW,225,4.0,4.0,98,0.00,,OVC,0.00,0.0,WeatherDisplay:10.37,2013-04-28 12:48:00,
2013-04-28 07:53:00,51.3,50.7,29.63,SSW,202,4.0,4.0,98,0.00,,OVC,0.00,0.0,WeatherDisplay:10.37,2013-04-28 12:53:00,
2013-04-28 07:58:00,51.4,50.9,29.63,SSW,202,4.6,4.6,98,0.00,,OVC,0.00,0.0,WeatherDisplay:10.37,2013-04-28 12:58:00,
2013-04-28 08:03:00,51.6,51.1,29.63,SW,225,4.6,4.6,98,0.00,,OVC,0.00,0.0,WeatherDisplay:10.37,2013-04-28 13:03:00,
2013-04-28 08:08:00,51.6,50.2,29.63,WSW,248,5.8,5.8,95,0.00,,OVC,0.00,0.0,WeatherDisplay:10.37,2013-04-28 13:08:00,
2013-04-28 08:13:00,51.8,50.4,29.63,WSW,248,4.6,4.6,95,0.00,,OVC,0.00,0.0,WeatherDisplay:10.37,2013-04-28 13:13:00,
2013-04-28 08:18:00,52.0,50.6,29.63,WSW,248,4.9,4.9,95,0.00,,OVC,0.00,0.0,WeatherDisplay:10.37,2013-04-28 13:18:00,
2013-04-28 08:23:00,52.2,49.9,29.63,SSW,202,5.8,5.8,92,0.00,,OVC,0.00,0.0,WeatherDisplay:10.37,2013-04-28 13:23:00,
2013-04-28 08:28:00,52.7,51.0,29.63,WSW,248,5.9,5.9,94,0.00,,OVC,0.00,0.0,WeatherDisplay:10.37,2013-04-28 13:28:00,
2013-04-28 08:33:00,53.1,51.4,29.63,WSW,248,3.8,3.8,94,0.00,,OVC,0.00,0.0,WeatherDisplay:10.37,2013-04-28 13:33:00,
2013-04-28 08:38:00,53.1,49.9,29.63,WSW,248,8.1,8.1,89,0.00,,OVC,0.00,0.0,WeatherDisplay:10.37,2013-04-28 13:38:00,
2013-04-28 08:43:00,53.1,50.5,29.63,WSW,248,7.8,7.8,91,0.00,,OVC,0.00,0.0,WeatherDisplay:10.37,2013-04-28 13:43:00,
2013-04-28 08:48:00,53.2,50.1,29.60,WSW,248,6.9,6.9,89,0.00,,OVC,0.00,0.0,WeatherDisplay:10.37,2013-04-28 13:48:00,
2013-04-28 08:53:00,53.4,50.6,29.60,WSW,248,8.1,8.1,90,0.00,,OVC,0.00,100.0,WeatherDisplay:10.37,2013-04-28 13:53:00,
2013-04-28 08:58:00,53.8,50.9,29.60,WSW,248,5.8,5.8,90,0.00,,OVC,0.00,100.0,WeatherDisplay:10.37,2013-04-28 13:58:00,
2013-04-28 09:03:00,53.6,49.8,29.63,WSW,248,5.8,5.8,87,0.00,,OVC,0.00,0.0,WeatherDisplay:10.37,2013-04-28 14:03:00,
2013-04-28 09:08:00,54.0,50.5,29.63,WSW,248,5.8,5.8,88,0.00,,OVC,0.00,0.0,WeatherDisplay:10.37,2013-04-28 14:08:00,
2013-04-28 09:13:00,53.8,49.1,29.63,WSW,248,10.4,10.4,84,0.00,,OVC,0.00,100.0,WeatherDisplay:10.37,2013-04-28 14:13:00,
2013-04-28 09:18:00,54.3,48.9,29.60,WSW,248,8.5,8.5,82,0.00,,OVC,0.00,100.0,WeatherDisplay:10.37,2013-04-28 14:18:00,
2013-04-28 09:23:00,54.9,48.1,29.60,West,270,9.2,9.2,78,0.00,,OVC,0.00,100.0,WeatherDisplay:10.37,2013-04-28 14:23:00,
2013-04-28 09:28:00,55.2,49.2,29.60,West,270,8.1,8.1,80,0.00,,OVC,0.00,100.0,WeatherDisplay:10.37,2013-04-28 14:28:00,
2013-04-28 09:33:00,54.9,48.1,29.63,West,270,10.4,10.4,78,0.00,,OVC,0.00,100.0,WeatherDisplay:10.37,2013-04-28 14:33:00,
2013-04-28 09:38:00,54.9,48.5,29.63,WNW,292,9.2,9.2,79,0.00,,OVC,0.00,100.0,WeatherDisplay:10.37,2013-04-28 14:38:00,
2013-04-28 09:43:00,54.9,48.5,29.63,WNW,292,5.8,7.1,79,0.00,,OVC,0.00,100.0,WeatherDisplay:10.37,2013-04-28 14:43:00,
2013-04-28 09:48:00,54.9,48.5,29.63,WNW,292,5.8,7.1,79,0.00,,OVC,0.00,100.0,WeatherDisplay:10.37,2013-04-28 14:48:00,
2013-04-28 09:53:00,54.9,48.5,29.63,WNW,292,5.8,7.1,79,0.00,,OVC,0.00,100.0,WeatherDisplay:10.37,2013-04-28 14:53:00,
2013-04-28 09:58:00,54.9,48.5,29.63,WNW,292,5.8,7.1,79,0.00,,OVC,0.00,100.0,WeatherDisplay:10.37,2013-04-28 14:58:00,
2013-04-28 10:03:00,54.9,48.5,29.63,WNW,292,5.8,7.1,79,0.00,,OVC,0.00,100.0,WeatherDisplay:10.37,2013-04-28 15:03:00,
2013-04-28 10:08:00,54.9,48.5,29.63,WNW,292,5.8,7.1,79,0.00,,OVC,0.00,100.0,WeatherDisplay:10.37,2013-04-28 15:08:00,
2013-04-28 10:13:00,54.9,48.5,29.63,WNW,292,5.8,7.1,79,0.00,,OVC,0.00,100.0,WeatherDisplay:10.37,2013-04-28 15:13:00,
2013-04-28 10:18:00,54.9,48.5,29.63,WNW,292,5.8,7.1,79,0.00,,OVC,0.00,100.0,WeatherDisplay:10.37,2013-04-28 15:18:00,
2013-04-28 10:23:00,54.9,48.5,29.63,WNW,292,5.8,7.1,79,0.00,,OVC,0.00,100.0,WeatherDisplay:10.37,2013-04-28 15:23:00,
2013-04-28 10:28:00,54.9,48.5,29.63,WNW,292,5.8,7.1,79,0.00,,OVC,0.00,100.0,WeatherDisplay:10.37,2013-04-28 15:28:00,
2013-04-28 10:33:00,54.9,48.5,29.63,WNW,292,5.8,7.1,79,0.00,,OVC,0.00,100.0,WeatherDisplay:10.37,2013-04-28 15:33:00,
2013-04-28 10:38:00,54.9,48.5,29.63,WNW,292,5.8,7.1,79,0.00,,OVC,0.00,100.0,WeatherDisplay:10.37,2013-04-28 15:38:00,
2013-04-28 10:43:00,54.9,48.5,29.63,WNW,292,5.8,7.1,79,0.00,,OVC,0.00,100.0,WeatherDisplay:10.37,2013-04-28 15:43:00,
2013-04-28 10:48:00,54.9,48.5,29.63,WNW,292,5.8,7.1,79,0.00,,OVC,0.00,100.0,WeatherDisplay:10.37,2013-04-28 15:48:00,
2013-04-28 10:53:00,54.9,48.5,29.63,WNW,292,5.8,7.1,79,0.00,,OVC,0.00,100.0,WeatherDisplay:10.37,2013-04-28 15:53:00,
2013-04-28 10:58:00,54.9,48.5,29.63,WNW,292,5.8,7.1,79,0.00,,OVC,0.00,100.0,WeatherDisplay:10.37,2013-04-28 15:58:00,
2013-04-28 11:03:00,54.9,48.5,29.63,WNW,292,5.8,7.1,79,0.00,,OVC,0.00,100.0,WeatherDisplay:10.37,2013-04-28 16:03:00,
2013-04-28 11:08:00,54.9,48.5,29.63,WNW,292,5.8,7.1,79,0.00,,OVC,0.00,100.0,WeatherDisplay:10.37,2013-04-28 16:08:00,
2013-04-28 11:13:00,54.9,48.5,29.63,WNW,292,5.8,7.1,79,0.00,,OVC,0.00,100.0,WeatherDisplay:10.37,2013-04-28 16:13:00,
2013-04-28 11:18:00,54.9,48.5,29.63,WNW,292,5.8,7.1,79,0.00,,OVC,0.00,100.0,WeatherDisplay:10.37,2013-04-28 16:18:00,
2013-04-28 11:23:00,64.6,49.9,29.60,WNW,292,2.9,5.9,59,0.00,CLR,OVC,0.00,500.0,WeatherDisplay:10.37,2013-04-28 16:23:00,
2013-04-28 11:28:00,65.3,49.7,29.63,WNW,292,5.8,5.8,57,0.00,CLR,OVC,0.00,600.0,WeatherDisplay:10.37,2013-04-28 16:28:00,
2013-04-28 11:33:00,66.2,52.3,29.60,SSW,202,5.8,5.8,61,0.00,OVC,,0.00,600.0,WeatherDisplay:10.37,2013-04-28 16:33:00,
2013-04-28 11:38:00,65.5,56.6,29.60,SW,225,2.6,3.6,73,0.00,OVC,,0.00,600.0,WeatherDisplay:10.37,2013-04-28 16:38:00,
2013-04-28 11:43:00,67.8,53.4,29.60,SSW,202,2.6,2.6,60,0.00,OVC,,0.00,600.0,WeatherDisplay:10.37,2013-04-28 16:43:00,
2013-04-28 11:48:00,66.0,50.3,29.60,South,180,6.9,6.9,57,0.00,OVC,,0.00,600.0,WeatherDisplay:10.37,2013-04-28 16:48:00,
2013-04-28 11:53:00,68.2,53.8,29.60,SSE,158,3.1,3.1,60,0.00,OVC,,0.00,700.0,WeatherDisplay:10.37,2013-04-28 16:53:00,
2013-04-28 11:58:00,67.5,52.6,29.60,WSW,248,6.4,6.4,59,0.00,OVC,,0.00,700.0,WeatherDisplay:10.37,2013-04-28 16:58:00,
2013-04-28 12:03:00,67.3,52.5,29.60,WSW,248,5.8,5.8,59,0.00,OVC,,0.00,700.0,WeatherDisplay:10.37,2013-04-28 17:03:00,
2013-04-28 12:08:00,67.3,51.5,29.60,WNW,292,5.8,5.8,57,0.00,OVC,,0.00,700.0,WeatherDisplay:10.37,2013-04-28 17:08:00,
2013-04-28 12:13:00,67.3,52.0,29.60,WSW,248,5.8,5.8,58,0.00,OVC,,0.00,700.0,WeatherDisplay:10.37,2013-04-28 17:13:00,
2013-04-28 12:18:00,69.6,54.2,29.60,NNW,338,2.3,2.3,58,0.00,OVC,,0.00,700.0,WeatherDisplay:10.37,2013-04-28 17:18:00,
2013-04-28 12:23:00,68.2,51.4,29.57,WSW,248,5.8,5.8,55,0.00,OVC,,0.00,700.0,WeatherDisplay:10.37,2013-04-28 17:23:00,
2013-04-28 12:28:00,68.9,51.6,29.57,West,270,4.6,4.6,54,0.00,BKN,OVC,0.00,700.0,WeatherDisplay:10.37,2013-04-28 17:28:00,
2013-04-28 12:33:00,69.1,52.2,29.57,West,270,5.9,5.9,55,0.00,SCT,OVC,0.00,700.0,WeatherDisplay:10.37,2013-04-28 17:33:00,
2013-04-28 12:38:00,70.3,54.4,29.57,SSE,158,3.1,3.1,57,0.00,CLR,OVC,0.00,700.0,WeatherDisplay:10.37,2013-04-28 17:38:00,
2013-04-28 12:44:00,70.0,52.6,29.57,WSW,248,6.9,6.9,54,0.00,CLR,OVC,0.00,700.0,WeatherDisplay:10.37,2013-04-28 17:44:00,
2013-04-28 12:49:00,69.1,52.2,29.57,SSW,202,5.8,5.8,55,0.00,CLR,OVC,0.00,800.0,WeatherDisplay:10.37,2013-04-28 17:49:00,
2013-04-28 12:54:00,69.1,52.2,29.57,West,270,6.9,6.9,55,0.00,CLR,OVC,0.00,800.0,WeatherDisplay:10.37,2013-04-28 17:54:00,
2013-04-28 12:59:00,69.1,51.7,29.57,WSW,248,8.1,8.1,54,0.00,CLR,OVC,0.00,800.0,WeatherDisplay:10.37,2013-04-28 17:59:00,
2013-04-28 13:04:00,69.6,52.7,29.57,West,270,4.0,4.0,55,0.00,CLR,OVC,0.00,800.0,WeatherDisplay:10.37,2013-04-28 18:04:00,
2013-04-28 13:09:00,70.3,51.9,29.54,WNW,292,4.6,4.6,52,0.00,CLR,OVC,0.00,800.0,WeatherDisplay:10.37,2013-04-28 18:09:00,
2013-04-28 13:14:00,72.9,55.2,29.54,WSW,248,5.4,5.4,54,0.00,CLR,OVC,0.00,800.0,WeatherDisplay:10.37,2013-04-28 18:14:00,
2013-04-28 13:19:00,71.1,53.6,29.54,WSW,248,5.8,5.8,54,0.00,CLR,OVC,0.00,800.0,WeatherDisplay:10.37,2013-04-28 18:19:00,
2013-04-28 13:24:00,71.1,53.6,29.57,WSW,248,6.9,6.9,54,0.00,CLR,OVC,0.00,800.0,WeatherDisplay:10.37,2013-04-28 18:24:00,
2013-04-28 13:29:00,72.3,53.7,29.57,SSW,202,5.4,5.4,52,0.00,CLR,OVC,0.00,800.0,WeatherDisplay:10.37,2013-04-28 18:29:00,
2013-04-28 13:34:00,71.8,53.2,29.57,WSW,248,5.8,5.8,52,0.00,CLR,OVC,0.00,800.0,WeatherDisplay:10.37,2013-04-28 18:34:00,
2013-04-28 13:39:00,73.2,54.5,29.57,South,180,3.6,3.6,52,0.00,CLR,OVC,0.00,800.0,WeatherDisplay:10.37,2013-04-28 18:39:00,
2013-04-28 13:44:00,73.6,54.9,29.57,WNW,292,4.6,4.6,52,0.00,CLR,OVC,0.00,800.0,WeatherDisplay:10.37,2013-04-28 18:44:00,
2013-04-28 13:49:00,74.7,55.3,29.57,East,90,3.5,3.5,51,0.00,CLR,OVC,0.00,800.0,WeatherDisplay:10.37,2013-04-28 18:49:00,
2013-04-28 13:54:00,74.1,54.3,29.60,SW,225,6.2,6.2,50,0.00,CLR,OVC,0.00,800.0,WeatherDisplay:10.37,2013-04-28 18:54:00,
2013-04-28 13:59:00,73.8,54.0,29.60,SSE,158,3.5,3.5,50,0.00,CLR,OVC,0.00,700.0,WeatherDisplay:10.37,2013-04-28 18:59:00,
2013-04-28 14:04:00,75.9,55.9,29.60,SW,225,2.3,2.3,50,0.00,CLR,OVC,0.00,700.0,WeatherDisplay:10.37,2013-04-28 19:04:00,
2013-04-28 14:09:00,73.6,53.2,29.57,West,270,6.9,6.9,49,0.00,CLR,OVC,0.00,700.0,WeatherDisplay:10.37,2013-04-28 19:09:00,
2013-04-28 14:14:00,73.6,53.2,29.57,WSW,248,4.6,4.7,49,0.00,CLR,OVC,0.00,700.0,WeatherDisplay:10.37,2013-04-28 19:14:00,
2013-04-28 14:19:00,74.5,54.6,29.57,WSW,248,7.4,7.4,50,0.00,CLR,OVC,0.00,700.0,WeatherDisplay:10.37,2013-04-28 19:19:00,
2013-04-28 14:24:00,74.3,54.5,29.57,SW,225,7.4,7.4,50,0.00,CLR,OVC,0.00,700.0,WeatherDisplay:10.37,2013-04-28 19:24:00,
2013-04-28 14:29:00,74.5,54.6,29.57,SW,225,5.8,5.8,50,0.00,CLR,OVC,0.00,600.0,WeatherDisplay:10.37,2013-04-28 19:29:00,
2013-04-28 14:34:00,73.0,52.7,29.57,WSW,248,5.8,5.8,49,0.00,CLR,OVC,0.00,600.0,WeatherDisplay:10.37,2013-04-28 19:34:00,
2013-04-28 14:39:00,74.1,53.7,29.54,SSE,158,6.9,6.9,49,0.00,CLR,OVC,0.00,600.0,WeatherDisplay:10.37,2013-04-28 19:39:00,
2013-04-28 14:44:00,74.7,54.8,29.54,SSW,202,5.8,5.8,50,0.00,CLR,OVC,0.00,600.0,WeatherDisplay:10.37,2013-04-28 19:44:00,
2013-04-28 14:49:00,75.0,54.6,29.54,SSE,158,9.2,9.2,49,0.00,CLR,OVC,0.00,600.0,WeatherDisplay:10.37,2013-04-28 19:49:00,
2013-04-28 14:54:00,74.1,53.7,29.54,WNW,292,7.1,7.1,49,0.00,CLR,OVC,0.00,600.0,WeatherDisplay:10.37,2013-04-28 19:54:00,
2013-04-28 14:59:00,74.5,54.6,29.54,WSW,248,5.8,5.8,50,0.00,CLR,OVC,0.00,600.0,WeatherDisplay:10.37,2013-04-28 19:59:00,
2013-04-28 15:04:00,74.7,54.8,29.54,WSW,248,4.6,4.6,50,0.00,CLR,OVC,0.00,600.0,WeatherDisplay:10.37,2013-04-28 20:04:00,
2013-04-28 15:09:00,74.5,54.1,29.51,WSW,248,5.8,5.8,49,0.00,CLR,OVC,0.00,500.0,WeatherDisplay:10.37,2013-04-28 20:09:00,
2013-04-28 15:14:00,75.0,54.0,29.51,WNW,292,6.9,6.9,48,0.00,CLR,OVC,0.00,500.0,WeatherDisplay:10.37,2013-04-28 20:14:00,
2013-04-28 15:19:00,77.2,56.0,29.51,WNW,292,2.3,2.3,48,0.00,CLR,OVC,0.00,500.0,WeatherDisplay:10.37,2013-04-28 20:19:00,
2013-04-28 15:24:00,79.2,57.8,29.51,WNW,292,3.5,3.5,48,0.00,CLR,OVC,0.00,500.0,WeatherDisplay:10.37,2013-04-28 20:24:00,
2013-04-28 15:29:00,78.4,55.9,29.51,ESE,112,5.8,5.8,46,0.00,CLR,OVC,0.00,500.0,WeatherDisplay:10.37,2013-04-28 20:29:00,
2013-04-28 15:34:00,77.4,54.4,29.51,WSW,248,5.8,5.8,45,0.00,FEW,OVC,0.00,400.0,WeatherDisplay:10.37,2013-04-28 20:34:00,
2013-04-28 15:39:00,77.7,55.9,29.48,WNW,292,5.8,5.8,47,0.00,SCT,OVC,0.00,400.0,WeatherDisplay:10.37,2013-04-28 20:39:00,
2013-04-28 15:44:00,77.2,55.4,29.48,SSW,202,4.0,4.0,47,0.00,SCT,OVC,0.00,400.0,WeatherDisplay:10.37,2013-04-28 20:44:00,
2013-04-28 15:49:00,78.1,56.2,29.48,SSE,158,3.5,3.5,47,0.00,SCT,OVC,0.00,400.0,WeatherDisplay:10.37,2013-04-28 20:49:00,
2013-04-28 15:54:00,79.2,56.6,29.48,SSW,202,2.3,2.3,46,0.00,SCT,OVC,0.00,400.0,WeatherDisplay:10.37,2013-04-28 20:54:00,
2013-04-28 15:59:00,77.9,54.2,29.48,WSW,248,4.6,4.6,44,0.00,SCT,OVC,0.00,400.0,WeatherDisplay:10.37,2013-04-28 20:59:00,
2013-04-28 16:04:00,78.6,55.5,29.48,SSE,158,3.5,3.5,45,0.00,SCT,OVC,0.00,300.0,WeatherDisplay:10.37,2013-04-28 21:04:00,
2013-04-28 16:09:00,77.4,54.4,29.51,SSW,202,6.2,6.2,45,0.00,BKN,OVC,0.00,300.0,WeatherDisplay:10.37,2013-04-28 21:09:00,
2013-04-28 16:14:00,76.1,53.8,29.51,WSW,248,5.8,5.8,46,0.00,BKN,OVC,0.00,300.0,WeatherDisplay:10.37,2013-04-28 21:14:00,
2013-04-28 16:19:00,75.9,53.0,29.51,South,180,5.8,5.8,45,0.00,BKN,OVC,0.00,300.0,WeatherDisplay:10.37,2013-04-28 21:19:00,
2013-04-28 16:24:00,77.0,54.6,29.51,SSW,202,3.5,3.5,46,0.00,BKN,OVC,0.00,300.0,WeatherDisplay:10.37,2013-04-28 21:24:00,
2013-04-28 16:29:00,78.1,55.6,29.51,West,270,1.1,1.4,46,0.00,BKN,OVC,0.00,300.0,WeatherDisplay:10.37,2013-04-28 21:29:00,
2013-04-28 16:34:00,79.9,56.6,29.51,SW,225,2.3,2.3,45,0.00,BKN,OVC,0.00,200.0,WeatherDisplay:10.37,2013-04-28 21:34:00,
2013-04-28 16:39:00,77.7,54.1,29.51,SW,225,5.9,5.9,44,0.00,BKN,OVC,0.00,200.0,WeatherDisplay:10.37,2013-04-28 21:39:00,
2013-04-28 16:44:00,77.2,54.2,29.51,WNW,292,4.9,4.9,45,0.00,BKN,OVC,0.00,200.0,WeatherDisplay:10.37,2013-04-28 21:44:00,
2013-04-28 16:49:00,76.5,54.1,29.51,WSW,248,4.6,4.6,46,0.00,BKN,OVC,0.00,200.0,WeatherDisplay:10.37,2013-04-28 21:49:00,
2013-04-28 16:54:00,77.7,54.7,29.51,WNW,292,2.9,2.9,45,0.00,BKN,OVC,0.00,200.0,WeatherDisplay:10.37,2013-04-28 21:54:00,
2013-04-28 16:59:00,80.1,55.5,29.51,ESE,112,3.6,3.6,43,0.00,BKN,OVC,0.00,100.0,WeatherDisplay:10.37,2013-04-28 21:59:00,
2013-04-28 17:04:00,79.0,54.6,29.51,West,270,3.6,3.6,43,0.00,BKN,OVC,0.00,100.0,WeatherDisplay:10.37,2013-04-28 22:04:00,
2013-04-28 17:10:00,77.2,53.6,29.51,SSW,202,3.5,4.0,44,0.00,BKN,OVC,0.00,100.0,WeatherDisplay:10.37,2013-04-28 22:10:00,
2013-04-28 17:15:00,78.1,54.4,29.51,SSW,202,2.6,4.0,44,0.00,BKN,OVC,0.00,100.0,WeatherDisplay:10.37,2013-04-28 22:15:00,
2013-04-28 17:20:00,79.0,54.6,29.51,SSW,202,2.6,4.0,43,0.00,BKN,OVC,0.00,100.0,WeatherDisplay:10.37,2013-04-28 22:20:00,
2013-04-28 17:25:00,79.2,54.7,29.48,SSW,202,2.6,4.0,43,0.00,BKN,OVC,0.00,100.0,WeatherDisplay:10.37,2013-04-28 22:25:00,
2013-04-28 17:30:00,79.0,53.9,29.48,SSW,202,2.6,4.0,42,0.00,BKN,OVC,0.00,100.0,WeatherDisplay:10.37,2013-04-28 22:30:00,
2013-04-28 17:35:00,79.0,54.6,29.48,SSW,202,2.6,4.0,43,0.00,BKN,OVC,0.00,100.0,WeatherDisplay:10.37,2013-04-28 22:35:00,
2013-04-28 17:40:00,79.2,54.7,29.48,SSW,202,2.6,4.0,43,0.00,BKN,OVC,0.00,100.0,WeatherDisplay:10.37,2013-04-28 22:40:00,
2013-04-28 17:45:00,79.0,54.6,29.48,SSW,202,2.6,4.0,43,0.00,BKN,OVC,0.00,0.0,WeatherDisplay:10.37,2013-04-28 22:45:00,
2013-04-28 17:50:00,78.8,54.4,29.48,SSW,202,2.6,4.0,43,0.00,OVC,,0.00,0.0,WeatherDisplay:10.37,2013-04-28 22:50:00,
2013-04-28 17:55:00,78.3,54.6,29.48,SSW,202,2.6,4.0,44,0.00,OVC,,0.00,0.0,WeatherDisplay:10.37,2013-04-28 22:55:00,
2013-04-28 18:00:00,78.1,55.0,29.48,SE,135,2.4,2.6,45,0.00,OVC,,0.00,0.0,WeatherDisplay:10.37,2013-04-28 23:00:00,
2013-04-28 18:05:00,77.0,54.0,29.48,SE,135,2.4,2.6,45,0.00,OVC,,0.00,0.0,WeatherDisplay:10.37,2013-04-28 23:05:00,
2013-04-28 18:10:00,76.8,54.5,29.48,SSE,158,5.8,5.8,46,0.00,OVC,,0.00,0.0,WeatherDisplay:10.37,2013-04-28 23:10:00,
2013-04-28 18:15:00,76.3,54.6,29.48,SSE,158,5.8,5.8,47,0.00,OVC,,0.00,0.0,WeatherDisplay:10.37,2013-04-28 23:15:00,
2013-04-28 18:20:00,76.1,55.0,29.48,SE,145,3.0,6.0,48,0.00,OVC,OVC,0.00,0.0,WeatherDisplay:10.37,2013-04-28 23:20:00,
2013-04-28 18:25:00,75.7,54.7,29.48,ESE,112,4.9,4.9,48,0.00,OVC,,0.00,0.0,WeatherDisplay:10.37,2013-04-28 23:25:00,
2013-04-28 18:30:00,75.2,54.2,29.48,ESE,112,3.0,5.0,48,0.00,OVC,OVC,0.00,0.0,WeatherDisplay:10.37,2013-04-28 23:30:00,
2013-04-28 18:35:00,75.0,54.6,29.48,ESE,112,4.9,4.9,49,0.00,OVC,,0.00,0.0,WeatherDisplay:10.37,2013-04-28 23:35:00,
2013-04-28 18:40:00,74.3,53.9,29.48,ESE,112,4.9,4.9,49,0.00,OVC,,0.00,0.0,WeatherDisplay:10.37,2013-04-28 23:40:00,
2013-04-28 18:45:00,73.8,54.0,29.48,ESE,112,3.0,5.0,50,0.00,OVC,OVC,0.00,0.0,WeatherDisplay:10.37,2013-04-28 23:45:00,
2013-04-28 18:50:00,73.9,54.0,29.48,ESE,112,3.0,5.0,50,0.00,OVC,OVC,0.00,0.0,WeatherDisplay:10.37,2013-04-28 23:50:00,
2013-04-28 18:55:00,73.8,54.0,29.48,SE,135,2.4,2.4,50,0.00,OVC,,0.00,0.0,WeatherDisplay:10.37,2013-04-28 23:55:00,
2013-04-28 19:00:00,73.4,53.6,29.48,SE,135,2.4,2.4,50,0.00,OVC,,0.00,0.0,WeatherDisplay:10.37,2013-04-29 00:00:00,
2013-04-28 19:05:00,73.1,53.9,29.48,SE,135,2.0,2.0,51,0.00,OVC,OVC,0.00,0.0,WeatherDisplay:10.37,2013-04-29 00:05:00,
2013-04-28 19:10:00,72.9,54.2,29.48,SE,135,2.0,2.0,52,0.00,OVC,OVC,0.00,0.0,WeatherDisplay:10.37,2013-04-29 00:10:00,
2013-04-28 19:15:00,72.4,53.8,29.48,ESE,121,2.0,2.0,52,0.00,OVC,OVC,0.00,0.0,WeatherDisplay:10.37,2013-04-29 00:15:00,
2013-04-28 19:20:00,72.4,53.8,29.48,ESE,112,2.0,2.0,52,0.00,OVC,OVC,0.00,0.0,WeatherDisplay:10.37,2013-04-29 00:20:00,
2013-04-28 19:25:00,72.1,53.5,29.48,ESE,112,2.4,2.4,52,0.00,OVC,,0.00,0.0,WeatherDisplay:10.37,2013-04-29 00:25:00,
2013-04-28 19:30:00,72.1,54.1,29.48,ESE,112,2.4,2.4,53,0.00,OVC,,0.00,0.0,WeatherDisplay:10.37,2013-04-29 00:30:00,